Location: Killam
(52.7910°N, 111.8608°W)
Time: 11:14:01
(UTC+00:00)

SR - Pass Details

Date: 16 February 2026
Orbit: 573 x 848 km, 66.7° (Epoch: 7 March)

Event Time Altitude Azimuth Distance (km) Brightness Sun altitude
Exits shadow 11:20:25 11° 134° (SE) 1,863 ? -30.7°
Maximum altitude 11:22:17 13° 107° (ESE) 1,708 ? -30.4°
Drops below altitude 10° 11:24:24 10° 78° (ENE) 1,952 ? -30.1°
Sets 11:27:45 0° 52° (NE) 2,912 ? -29.6°
